{"data":{"norad_id":43249,"epoch":"2026-09-19T23:25:47.339040Z","epoch_age_seconds":60628,"freshness":"FRESH","line1":"1 43249U 18030A   26262.97624235  .00000001  00000+0 -66280-5 0  9998","line2":"2 43249  86.3913 250.7473 0002057  88.0829 272.0603 14.34217573443728","mean_motion":14.34217573,"eccentricity":0.0002057,"inclination_deg":86.3913,"raan_deg":250.7473,"arg_perigee_deg":88.0829,"mean_anomaly_deg":272.0603,"bstar":-6.628e-6,"rev_number":44372,"period_min":100.40317641541,"perigee_km":776.19579406035,"apogee_km":779.13969213166,"semimajor_km":7155.804743096,"source":"CELESTRAK","updated_at":"2026-09-20T09:00:36.328394Z"}}